sat.trackr.live / text

‹ back to catalog

STARLINK-35931

NORAD 66519 · 2025-265D

PAYLOAD ACTIVE UNKNOWN

§ Identity

Operator
Country
US
Launch date
2025-11-19
Launch site
AFETR
Launch vehicle
Mass (kg)
RCS (m²)

Purposes: comms

External: N2YO · Heavens-Above · Gunter

§ Orbital elements

Epoch: 2026-05-24T20:55:36.360768Z

Period
94.27 min
Inclination
42.9998°
Eccentricity
0.0001143
Mean motion
15.27579107 rev/d
Perigee alt
482.3 km
Apogee alt
483.8 km
Semi-major
6,861.2 km
B*
6.3643e-4
RAAN
207.7743°
Arg perigee
279.8857°
Mean anomaly
80.1865°
Rev number
2,876

§ Raw data

STARLINK-359311 66519U 25265D   26144.87194862  .00017292  00000+0  63643-3 0  99942 66519  42.9998 207.7743 0001143 279.8857  80.1865 15.27579107 28760

JSON: /api/v1/satellites/66519 · /tle

For live sub-satellite position, see the globe view (requires WebGL).

§ Visibility from observer

Set your observer location to see the next 7 days of passes ≥ 10°. The values pass through the URL so the page stays shareable.

No JS? Fill the form by hand. The geolocation button needs JavaScript.